Regional Weather Roundup
Issued by NWS New Orleans/Baton Rouge, LA

Home | Current Version | Previous Version | Graphics & Text | Print | Product List | Glossary On
Versions: 1 2 3 4 5 6 7 8 9 10 11 12 13 14 15 16 17 18 19 20 21 22 23 24 25 26 27 28 29 30 31 32 33 34 35 36 37 38 39 40 41 42 43 44 45 46 47 48 49 50
806
ASUS44 KLIX 182001
RWRLIX
NEW ORLEANS REGIONAL WEATHER ROUNDUP
NATIONAL WEATHER SERVICE NEW ORLEANS LA
300 PM CDT THU SEP 18 2014

NOTE: "FAIR" INDICATES FEW OR NO CLOUDS BELOW 12,000 FEET WITH NO
      SIGNIFICANT WEATHER AND/OR OBSTRUCTIONS TO VISIBILITY.
      SKY/WX - SKY CONDITION AND SIGNIFICANT WEATHER.
      TMP - AIR TEMPERATURE.     DP    - DEWPOINT TEMPERATURE.
      RH  - RELATIVE HUMIDITY.   PRES  - PRESSURE.
      HI  - HEAT INDEX.          WCI   - WIND CHILL INDEX.

*  THESE STATIONS ARE NOT NWS OR FAA STATIONS AND ARE NOT UNDER
   NWS QUALITY CONTROL.

LAZ038-040-048-061>063-065>067-069-182100-
SOUTHEAST LOUISIANA

CITY           SKY/WX    TMP DP  RH WIND       PRES   REMARKS
N.O. AUDUBON   NOT AVBL
N.O. INTL ARPT CLOUDY    87  73  62 S12       29.88F
N.O. LAKEFRONT CLOUDY    86  73  65 E7        29.89F
N.O. DOWNTOWN*   N/A     88  72  58 SE9       29.89F
SLIDELL        CLOUDY    86  71  60 SE6       29.89F
BATON ROUGE    CLOUDY    85  73  67 E7        29.89F
BOOTHVILLE     CLOUDY    84  75  74 S12       29.90F
BELLE CHASSE   CLOUDY    87  71  58 SE8       29.88F
BOGALUSA*        N/A     86  73  63 CALM      29.91F
GALLIANO*      NOT AVBL
NEW ROADS*       N/A     84  72  66 E5        29.89F
GONZALES*      CLOUDY    86  76  71 CALM      29.88F HX  96
HAMMOND*       NOT AVBL
HOUMA*         PTSUNNY   84  57  39 SE6       29.89F
PORT FOURCHON* PTCLDY    84  75  74 VRB6      29.92F

$$

MSZ070-080>082-182100-
SOUTHERN MISSISSIPPI

CITY           SKY/WX    TMP DP  RH WIND       PRES   REMARKS
MCCOMB         CLOUDY    84  72  67 S3        29.91F
GULFPORT       CLOUDY    84  73  69 S6        29.89F
BILOXI         CLOUDY    86  73  65 S5        29.90F
PASCAGOULA     CLOUDY    85  72  65 S3        29.90F
STENNIS ARPT*  MOSUNNY   84  72  65 S5        29.90F

$$

COASTAL OBSERVATIONS
LAKE AND NEARSHORE STATIONS

STATION/POSITION TIME  TEMP    WIND        PRES    WAVE
                       AIR SEA DIR/SP/G            HT/PER
                 (UTC) (F)     (DEG/KT/KT) (MB)    (FT/S)
PASCAGOULA       1900   85     170/  4/  8 1012.1
WAVELAND YACHT   1900   83     160/  6/  7 1012.0
GRAND ISLE       1900   84 87  150/  4/  7 1013.0
SOUTHWEST PASS   1900   87 91  150/  6/ 10 1013.0
NEW CANAL        1900   88 83   60/  1/  5 1012.5
SHELL BEACH      1900   84 81  140/  9/ 11 1012.3

OFFSHORE STATIONS

STATION/POSITION TIME  TEMP    WIND        PRES    WAVE
                       AIR SEA DIR/SP/G            HT/PER
                 (UTC) (F)     (DEG/KT/KT) (MB)    (FT/S)
64 S DAUPHIN ISL 1859   83 87  150/  6/  8 1012.9    1/ 5

$$




USA.gov is the U.S. government's official web portal to all federal, state and local government web resources and services.